Stations météo

Publicité
Cap Cepet, France (7661): Température de l'air & dewpoint: 22.04.2017 12:00:00 - 28.04.2017 12:00:00 (CEST)Cap Cepet, France (7661): Vitesse du vent & gusts: 22.04.2017 12:00:00 - 28.04.2017 12:00:00 (CEST)Cap Cepet, France (7661): Direction du vent: 22.04.2017 12:00:00 - 28.04.2017 12:00:00 (CEST)Cap Cepet, France (7661): reduced air pressure: 22.04.2017 12:00:00 - 28.04.2017 12:00:00 (CEST)Cap Cepet, France (7661): visibility: 22.04.2017 12:00:00 - 28.04.2017 12:00:00 (CEST)Cap Cepet, France (7661): Quantités de précipitations: 22.04.2017 12:00:00 - 28.04.2017 12:00:00 (CEST)
Date & Time tt [°C] td [°C] ff [km/h] ff [knt] fx [km/h] fx [knt] dd ppp [hPa] vv [km] rr [mm]
28.04.2017 12:00:00 - - - - - - - - - -
28.04.2017 11:00:00 11,3 0,4 51 28 86 47 WNW 1010,1 40 0,0
28.04.2017 10:00:00 9,5 -0,4 61 33 87 47 WNW 1010,3 - 0,0
28.04.2017 09:00:00 8,5 -0,3 54 29 79 42 WNW 1010,7 - 0,0
28.04.2017 08:00:00 7,3 -0,2 49 27 77 42 WNW 1010,6 30 0,0
28.04.2017 07:00:00 6,8 -0,4 53 28 76 41 WNW 1010,2 - 0,0
28.04.2017 06:00:00 6,8 -0,4 52 28 86 47 WNW 1009,9 - 0,0
28.04.2017 05:00:00 6,7 -0,1 55 30 85 46 W 1009,7 20 0,0
28.04.2017 04:00:00 6,9 0,3 50 27 77 41 W 1009,7 - 0,0
28.04.2017 03:00:00 7,0 0,4 49 26 71 38 W 1009,9 - 0,0
28.04.2017 02:00:00 7,3 0,7 45 24 67 36 W 1010,2 - 0,0
28.04.2017 01:00:00 8,0 0,2 46 25 78 42 WNW 1010,4 - 0,0
28.04.2017 00:00:00 8,5 0,9 45 24 72 39 WNW 1010,1 - 0,0
27.04.2017 23:00:00 9,1 -0,5 44 24 72 39 WNW 1010,0 - 0,0
27.04.2017 22:00:00 9,5 -0,1 51 27 68 37 WNW 1009,5 - 0,0
27.04.2017 21:00:00 9,9 1,0 49 26 67 36 WNW 1008,7 - 0,0
27.04.2017 20:00:00 11,4 2,4 45 25 61 33 WNW 1008,3 - 0,0
27.04.2017 19:00:00 12,4 3,6 35 19 50 27 WNW 1008,4 - 0,0
27.04.2017 18:00:00 10,3 3,6 36 19 56 30 WNW 1008,8 - 0,0
27.04.2017 17:00:00 10,5 4,4 39 21 55 30 W 1008,6 20 0,0
27.04.2017 16:00:00 10,8 4,9 36 19 52 28 W 1008,9 - 0,0
27.04.2017 15:00:00 11,0 5,1 25 14 45 25 W 1009,0 - 0,0
27.04.2017 14:00:00 11,2 5,3 29 15 41 22 W 1009,1 20 0,0
27.04.2017 13:00:00 11,7 6,2 24 13 40 21 W 1009,4 - 0,0
27.04.2017 12:00:00 11,3 5,6 29 16 46 25 W 1009,5 - 0,0
27.04.2017 11:00:00 11,4 5,9 26 14 39 21 W 1009,3 20 0,0
27.04.2017 10:00:00 12,0 4,7 20 11 33 18 WNW 1008,4 - 0,0
27.04.2017 09:00:00 10,3 4,9 18 10 42 23 WNW 1008,6 - 0,0
27.04.2017 08:00:00 9,9 5,5 31 17 48 26 WNW 1008,5 - 0,0
27.04.2017 07:00:00 9,8 6,0 19 11 30 16 W 1008,3 - 0,0
27.04.2017 06:00:00 9,8 5,8 17 9 32 17 W 1008,1 - 0,0
27.04.2017 05:00:00 10,3 6,1 24 13 37 20 WNW 1008,2 20 0,0
27.04.2017 04:00:00 11,1 6,0 26 14 38 20 W 1008,4 - 0,0
27.04.2017 03:00:00 11,8 6,5 22 12 33 18 W 1008,4 - 0,0
27.04.2017 02:00:00 11,9 6,6 13 7 27 15 W 1008,7 - 0,0
27.04.2017 01:00:00 12,0 6,7 21 11 29 16 WNW 1008,8 - 0,0
27.04.2017 00:00:00 12,0 7,5 23 12 38 20 WNW 1008,9 - 0,0
26.04.2017 23:00:00 12,4 8,1 28 15 40 21 WNW 1009,0 - 0,0
26.04.2017 22:00:00 12,8 9,4 31 17 41 22 WNW 1008,7 - 0,0
26.04.2017 21:00:00 13,0 11,2 29 16 46 25 WNW 1008,0 - 0,0
26.04.2017 20:00:00 13,3 11,5 25 14 37 20 W 1007,9 - 0,0
26.04.2017 19:00:00 13,5 11,7 22 12 33 18 W 1007,6 - 0,0
26.04.2017 18:00:00 13,1 11,5 23 12 37 20 WNW 1007,7 - 0,2
26.04.2017 17:00:00 14,8 11,8 19 10 29 16 WNW 1007,3 - 0,0
26.04.2017 16:00:00 14,5 11,8 23 12 41 22 WNW 1007,0 - 0,0
26.04.2017 15:00:00 14,2 11,9 26 14 41 22 W 1007,3 - 0,0
26.04.2017 14:00:00 16,2 12,6 17 9 33 18 WSW 1007,0 15 0,0
26.04.2017 13:00:00 16,7 12,4 19 10 32 17 W 1007,1 - 0,0
26.04.2017 12:00:00 16,4 13,5 14 8 32 17 WSW 1007,1 - 0,0
26.04.2017 11:00:00 14,3 13,3 25 13 46 25 WNW 1006,8 15 0,0
26.04.2017 10:00:00 13,1 12,6 25 13 35 19 W 1006,3 - 0,0
26.04.2017 09:00:00 13,3 13,0 25 14 41 22 W 1006,1 - 0,2
26.04.2017 08:00:00 13,1 12,8 22 12 37 20 W 1005,8 15 0,0
26.04.2017 07:00:00 13,2 12,9 24 13 44 24 W 1004,9 - 0,6
26.04.2017 06:00:00 14,1 13,8 23 12 41 22 S 1005,3 - 0,4
26.04.2017 05:00:00 14,3 14,0 23 12 40 21 S 1005,8 15 0,2
26.04.2017 04:00:00 14,3 13,8 20 11 34 18 SSE 1006,3 - 1,4
26.04.2017 03:00:00 14,2 13,6 16 9 33 18 SE 1007,4 - 0,2
26.04.2017 02:00:00 14,1 13,3 15 8 25 13 ESE 1008,1 - 0,0
26.04.2017 01:00:00 14,0 13,0 15 8 24 13 E 1009,2 - 0,2
26.04.2017 00:00:00 14,2 12,9 13 7 30 16 E 1009,5 - 0,0
25.04.2017 23:00:00 13,5 12,2 21 11 34 19 ENE 1009,5 - 0,0
25.04.2017 22:00:00 13,2 11,4 22 12 34 18 ENE 1009,6 - 0,0
25.04.2017 21:00:00 13,7 12,1 24 13 35 19 ENE 1009,4 - 0,0
25.04.2017 20:00:00 14,2 12,2 19 11 29 16 ENE 1009,7 - 0,0
25.04.2017 19:00:00 14,9 12,2 12 7 25 13 E 1010,0 - 0,0
25.04.2017 18:00:00 15,9 12,3 16 8 29 15 ESE 1010,3 - 0,0
25.04.2017 17:00:00 15,9 12,5 16 8 29 15 ESE 1011,2 25 0,0
25.04.2017 16:00:00 15,9 12,1 13 7 31 17 E 1011,7 - 0,0
25.04.2017 15:00:00 15,9 12,1 16 8 32 17 ESE 1012,4 - 0,0
25.04.2017 14:00:00 17,1 11,8 16 9 32 17 ESE 1012,9 - 0,0
25.04.2017 13:00:00 16,3 12,1 21 11 32 17 SE 1013,7 - 0,0
25.04.2017 12:00:00 17,7 13,2 21 12 29 16 ESE 1013,6 - 0,0
25.04.2017 11:00:00 18,4 13,3 16 9 27 14 E 1013,7 30 0,0
25.04.2017 10:00:00 16,4 11,8 15 8 25 14 NE 1013,8 - 0,0
25.04.2017 09:00:00 14,2 11,9 16 9 21 12 NE 1014,1 - 0,0
25.04.2017 08:00:00 11,5 10,7 13 7 18 10 ENE 1014,6 - 0,0
25.04.2017 07:00:00 10,5 9,6 12 7 21 11 E 1014,4 - 0,0
25.04.2017 06:00:00 10,6 9,7 11 6 20 11 ENE 1014,6 - 0,0
25.04.2017 05:00:00 10,3 9,4 16 8 23 12 ENE 1015,0 20 0,0
25.04.2017 04:00:00 10,3 9,2 16 9 22 12 ENE 1015,3 - 0,0
25.04.2017 03:00:00 10,5 9,4 16 9 22 12 ENE 1015,8 - 0,0
25.04.2017 02:00:00 11,0 9,9 17 9 22 12 ENE 1016,3 - 0,0
25.04.2017 01:00:00 11,3 10,2 15 8 21 11 ENE 1016,9 - 0,0
25.04.2017 00:00:00 12,2 10,9 12 7 19 10 ENE 1017,1 - 0,0
24.04.2017 23:00:00 12,7 11,1 14 8 19 10 ENE 1017,1 - 0,0
24.04.2017 22:00:00 13,4 10,9 14 7 20 11 E 1017,3 - 0,0
24.04.2017 21:00:00 13,6 10,8 15 8 21 12 E 1017,1 - 0,0
24.04.2017 20:00:00 14,5 10,7 13 7 19 10 E 1017,0 25 0,0
24.04.2017 19:00:00 15,9 11,9 9 5 25 13 E 1017,3 - 0,0
24.04.2017 18:00:00 16,9 12,0 15 8 29 16 ESE 1017,5 - 0,0
24.04.2017 17:00:00 17,6 12,3 20 11 29 16 ESE 1017,8 18 0,0
24.04.2017 16:00:00 18,3 12,7 17 9 35 19 SE 1018,2 - 0,0
24.04.2017 15:00:00 17,3 12,2 21 12 36 19 ESE 1018,8 - 0,0
24.04.2017 14:00:00 18,5 12,7 18 10 33 18 ESE 1018,9 30 0,0
24.04.2017 13:00:00 18,9 12,4 19 11 37 20 E 1019,0 - 0,0
24.04.2017 12:00:00 17,9 12,1 21 11 43 23 E 1019,4 - 0,0
24.04.2017 11:00:00 17,4 11,9 25 13 43 23 E 1019,1 - 0,0
24.04.2017 10:00:00 17,3 12,0 20 11 31 17 NE 1018,8 - 0,0
24.04.2017 09:00:00 14,5 11,6 24 13 31 17 NE 1018,9 - 0,0
24.04.2017 08:00:00 11,3 10,4 21 11 27 14 NE 1018,9 - 0,0
24.04.2017 07:00:00 10,4 9,5 18 10 27 15 NE 1018,5 - 0,2
24.04.2017 06:00:00 10,4 9,5 18 10 23 13 ENE 1018,2 - 0,0
24.04.2017 05:00:00 10,7 9,8 19 11 28 15 NE 1018,3 20 0,0
24.04.2017 04:00:00 10,5 9,6 21 11 24 13 ENE 1018,4 - 0,0
24.04.2017 03:00:00 11,3 10,0 9 5 15 8 NE 1018,7 - 0,0
24.04.2017 02:00:00 11,3 10,2 14 8 21 12 ENE 1019,0 - 0,0
24.04.2017 01:00:00 11,8 10,5 12 6 17 9 E 1019,1 - 0,0
24.04.2017 00:00:00 13,1 11,5 4 2 5 3 NE 1018,9 - 0,0
23.04.2017 23:00:00 13,3 11,7 3 2 5 3 NNE 1018,9 - 0,0
23.04.2017 22:00:00 13,3 11,5 2 1 6 4 ENE 1018,6 - 0,0
23.04.2017 21:00:00 13,2 11,4 6 3 11 6 SSW 1018,1 - 0,0
23.04.2017 20:00:00 14,3 10,9 5 3 14 8 S 1017,4 - 0,0
23.04.2017 19:00:00 16,2 10,9 11 6 17 9 SSE 1017,0 - 0,0
23.04.2017 18:00:00 16,9 10,3 6 3 19 11 SSE 1016,7 - 0,0
23.04.2017 17:00:00 17,8 11,4 8 4 24 13 SSE 1016,6 - 0,0
23.04.2017 16:00:00 17,4 11,2 11 6 23 12 SSE 1016,8 - 0,0
23.04.2017 15:00:00 18,0 11,5 11 6 27 15 SE 1016,8 - 0,0
23.04.2017 14:00:00 18,1 11,6 16 9 30 16 SSE 1016,7 20 0,0
23.04.2017 13:00:00 17,7 10,1 21 11 29 16 SSE 1016,7 - 0,0
23.04.2017 12:00:00 17,6 11,6 16 9 25 14 ESE 1016,6 - 0,0
23.04.2017 11:00:00 16,4 8,4 10 6 19 10 SSE 1016,4 20 0,0
23.04.2017 10:00:00 17,2 6,7 5 3 9 5 NE 1016,1 - 0,0
23.04.2017 09:00:00 13,8 9,6 2 1 16 8 W 1016,3 - 0,0
23.04.2017 08:00:00 11,0 9,9 4 2 14 8 NNW 1016,0 - 0,0
23.04.2017 07:00:00 10,9 10,1 6 3 20 11 WNW 1015,7 - 0,0
23.04.2017 06:00:00 11,1 10,2 17 9 39 21 WNW 1015,7 - 0,0
23.04.2017 05:00:00 11,9 11,1 29 16 51 27 W 1015,8 20 0,0
23.04.2017 04:00:00 12,0 11,1 32 17 45 25 W 1016,4 - 0,0
23.04.2017 03:00:00 12,1 10,8 27 15 51 28 W 1017,4 - 0,0
23.04.2017 02:00:00 12,4 10,8 31 17 50 27 W 1018,1 - 0,0
23.04.2017 01:00:00 12,3 10,2 34 18 47 25 W 1018,7 - 0,0
23.04.2017 00:00:00 12,2 9,9 27 15 42 23 W 1019,3 - 0,0
22.04.2017 23:00:00 12,3 9,8 27 14 42 23 W 1019,8 - 0,0
22.04.2017 22:00:00 12,4 9,8 26 14 40 22 W 1020,1 - 0,0
22.04.2017 21:00:00 12,5 9,3 25 14 48 26 W 1019,9 - 0,0
22.04.2017 20:00:00 13,2 9,3 33 18 54 29 W 1019,9 - 0,0
22.04.2017 19:00:00 14,6 9,8 36 19 63 34 W 1020,2 - 0,0
22.04.2017 18:00:00 14,4 9,6 33 18 60 32 W 1020,7 - 0,0
22.04.2017 17:00:00 16,9 10,3 32 17 60 33 WSW 1020,9 25 0,0
22.04.2017 16:00:00 16,8 10,2 34 18 54 29 WSW 1021,6 - 0,0
22.04.2017 15:00:00 17,5 9,6 32 18 54 29 WSW 1022,4 - 0,0
22.04.2017 14:00:00 17,6 9,5 27 15 46 25 W 1023,0 20 0,0
22.04.2017 13:00:00 17,2 8,3 29 16 54 29 WSW 1023,6 - 0,0
22.04.2017 12:00:00 15,7 9,1 31 17 50 27 W 1024,4 - 0,0

tt = Température de l'air
td = dewpoint
ff = Vitesse du vent
fx = gusts
dd = Direction du vent
ppp = reduced air pressure
vv = visibility
rr = Quantités de précipitations

stations d'obs. à proximité